GW6864 Weather Reports


time (UTC)temp
C
wind
direction
speed
KPH
gust
KPH
rain 1hr
cm
rain 24hr
cm
rain mn
cm
humidity
%
barometer
mb
20260509032552 12 191 3.2 3.2 0.00 0.00 0.00 62 1013.7
20260509032049 13 181 0.0 0.0 0.00 0.00 0.00 61 1013.8
20260509031547 12 200 3.2 3.2 0.00 0.00 0.00 60 1013.7
20260509031044 12 188 0.0 0.0 0.00 0.00 0.00 63 1013.8
20260509030542 12 186 0.0 0.0 0.00 0.00 0.00 64 1013.8
20260509030038 12 188 3.2 3.2 0.00 0.00 0.00 64 1013.8
20260509025535 12 188 0.0 0.0 0.00 0.00 0.00 69 1013.9
20260509025030 12 187 0.0 0.0 0.00 0.00 0.00 68 1013.8
20260509024526 12 187 0.0 0.0 0.00 0.00 0.00 69 1013.9
20260509024023 12 171 1.6 1.6 0.00 0.00 0.00 69 1013.8
20260509023521 13 170 0.0 0.0 0.00 0.00 0.00 65 1013.6
20260509023017 13 173 1.6 1.6 0.00 0.00 0.00 62 1013.8
20260509022514 13 186 1.6 1.6 0.00 0.00 0.00 67 1013.8
20260509022012 12 183 1.6 1.6 0.00 0.00 0.00 63 1013.9
20260509021508 12 193 0.0 0.0 0.00 0.00 0.00 67 1013.9
20260509021005 13 193 0.0 0.0 0.00 0.00 0.00 65 1013.9
20260509020504 13 193 0.0 0.0 0.00 0.00 0.00 64 1013.4
20260509020000 13 193 0.0 0.0 0.00 0.00 0.00 62 1013.6
20260509015459 13 193 0.0 0.0 0.00 0.00 0.00 61 1013.5
20260509014956 13 193 0.0 0.0 0.00 0.00 0.00 61 1013.3
20260509014452 13 193 0.0 0.0 0.00 0.00 0.00 60 1013.3
20260509013948 13 193 0.0 0.0 0.00 0.00 0.00 60 1013.6
20260509013446 13 193 0.0 0.0 0.00 0.00 0.00 58 1013.4
20260509012941 13 193 1.6 1.6 0.00 0.00 0.00 59 1013.4
20260509012438 14 194 0.0 0.0 0.00 0.00 0.00 59 1013.5
20260509011935 13 194 0.0 0.0 0.00 0.00 0.00 58 1013.6
20260509011433 13 194 0.0 0.0 0.00 0.00 0.00 59 1013.5
20260509010931 13 194 0.0 0.0 0.00 0.00 0.00 58 1013.4
20260509010428 14 194 0.0 0.0 0.00 0.00 0.00 57 1013.6
20260509005924 14 194 0.0 0.0 0.00 0.00 0.00 55 1013.5
20260509005423 14 194 0.0 0.0 0.00 0.00 0.00 53 1013.5
20260509004922 15 194 0.0 0.0 0.00 0.00 0.00 51 1013.5
20260509004419 15 194 0.0 0.0 0.00 0.00 0.00 52 1013.6
20260509003917 15 194 0.0 0.0 0.00 0.00 0.00 50 1013.6
20260509003415 16 194 0.0 0.0 0.00 0.00 0.00 49 1013.7
20260509002911 16 194 0.0 0.0 0.00 0.00 0.00 48 1013.6
20260509002409 16 194 0.0 0.0 0.00 0.00 0.00 47 1013.5
20260509001906 17 194 0.0 0.0 0.00 0.00 0.00 45 1013.4
20260509001402 17 194 0.0 0.0 0.00 0.00 0.00 45 1013.4
20260509000859 18 194 0.0 0.0 0.00 0.00 0.00 45 1013.7
20260509000357 18 194 0.0 0.0 0.00 0.00 0.00 43 1013.7
20260508235853 19 201 3.2 3.2 0.00 0.00 0.00 42 1013.6
20260508235350 19 198 3.2 3.2 0.00 0.00 0.00 41 1013.7
20260508234847 20 180 1.6 1.6 0.00 0.00 0.00 41 1013.5
20260508234344 20 207 6.4 6.4 0.00 0.00 0.00 37 1013.8
20260508233842 20 202 4.8 6.4 0.00 0.00 0.00 38 1013.7
20260508233341 20 212 8.0 9.7 0.00 0.00 0.00 34 1013.7
20260508232838 20 196 4.8 4.8 0.00 0.00 0.00 36 1013.5
20260508232334 21 199 3.2 3.2 0.00 0.00 0.00 37 1013.8
20260508231833 21 193 1.6 3.2 0.00 0.00 0.00 33 1013.6
20260508231328 21 205 3.2 3.2 0.00 0.00 0.00 34 1013.6
20260508230825 20 201 4.8 4.8 0.00 0.00 0.00 33 1013.8
20260508230322 21 202 3.2 4.8 0.00 0.00 0.00 35 1013.5
20260508225820 21 181 3.2 3.2 0.00 0.00 0.00 32 1013.6
20260508225316 21 208 3.2 6.4 0.00 0.00 0.00 30 1013.7
20260508224814 21 171 6.4 9.7 0.00 0.00 0.00 30 1013.7
20260508224311 21 198 3.2 3.2 0.00 0.00 0.00 32 1013.8
20260508223809 21 203 6.4 6.4 0.00 0.00 0.00 32 1013.9
20260508223306 21 207 4.8 9.7 0.00 0.00 0.00 30 1014.0
20260508222804 21 197 4.8 6.4 0.00 0.00 0.00 28 1014.0
20260508222300 21 224 8.0 9.7 0.00 0.00 0.00 30 1014.3
20260508221757 22 208 6.4 6.4 0.00 0.00 0.00 30 1014.2
20260508221253 22 218 6.4 6.4 0.00 0.00 0.00 31 1014.2
20260508220749 22 212 3.2 4.8 0.00 0.00 0.00 27 1014.2
20260508220246 22 203 4.8 6.4 0.00 0.00 0.00 29 1014.3
20260508215742 22 202 1.6 1.6 0.00 0.00 0.00 30 1014.2
20260508215239 22 234 9.7 12.9 0.00 0.00 0.00 29 1014.1
20260508214736 22 214 6.4 9.7 0.00 0.00 0.00 28 1014.3
20260508214233 22 195 6.4 9.7 0.00 0.00 0.00 30 1014.1
20260508213729 22 184 6.4 6.4 0.00 0.00 0.00 27 1014.1
20260508213226 22 245 3.2 4.8 0.00 0.00 0.00 30 1014.2
20260508212723 22 210 6.4 6.4 0.00 0.00 0.00 31 1014.1
20260508212219 23 223 14.5 20.9 0.00 0.00 0.00 27 1014.3
20260508211715 22 192 3.2 3.2 0.00 0.00 0.00 32 1014.3
20260508211211 23 244 6.4 6.4 0.00 0.00 0.00 30 1014.2
20260508210709 22 196 1.6 1.6 0.00 0.00 0.00 34 1014.4
20260508210205 22 106 4.8 4.8 0.00 0.00 0.00 29 1014.1
20260508205702 22 206 3.2 3.2 0.00 0.00 0.00 32 1014.3
20260508205158 22 201 9.7 11.3 0.00 0.00 0.00 26 1014.4
20260508204655 22 197 8.0 12.9 0.00 0.00 0.00 27 1014.2
20260508204151 23 216 3.2 4.8 0.00 0.00 0.00 29 1014.1
20260508203647 22 205 6.4 9.7 0.00 0.00 0.00 31 1014.2
20260508203144 22 205 3.2 4.8 0.00 0.00 0.00 27 1014.2
20260508202640 22 170 4.8 4.8 0.00 0.00 0.00 29 1014.3
20260508202137 22 212 4.8 4.8 0.00 0.00 0.00 28 1014.6
20260508201634 22 250 4.8 4.8 0.00 0.00 0.00 29 1014.6
20260508201131 22 163 0.0 0.0 0.00 0.00 0.00 27 1014.7
20260508200628 22 174 1.6 1.6 0.00 0.00 0.00 32 1014.4
20260508200123 22 185 1.6 3.2 0.00 0.00 0.00 32 1014.6
20260508195620 21 194 3.2 3.2 0.00 0.00 0.00 28 1014.7
20260508195117 22 207 6.4 9.7 0.00 0.00 0.00 24 1014.8
20260508194613 22 220 12.9 14.5 0.00 0.00 0.00 27 1014.9
20260508194111 22 242 6.4 9.7 0.00 0.00 0.00 30 1014.9
20260508193607 22 197 4.8 4.8 0.00 0.00 0.00 27 1015.1
20260508193104 22 214 1.6 1.6 0.00 0.00 0.00 35 1015.1
20260508192600 21 320 4.8 4.8 0.00 0.00 0.00 27 1015.2
20260508192058 21 118 3.2 3.2 0.00 0.00 0.00 31 1015.3
20260508191554 21 213 3.2 3.2 0.00 0.00 0.00 34 1015.5
20260508191051 21 256 3.2 4.8 0.00 0.00 0.00 28 1015.8
20260508190548 21 74 3.2 4.8 0.00 0.00 0.00 25 1015.8
20260508190044 21 221 4.8 4.8 0.00 0.00 0.00 29 1015.8
20260508185542 21 204 8.0 11.3 0.00 0.00 0.00 31 1015.9
20260508185039 21 183 4.8 4.8 0.00 0.00 0.00 34 1016.2
20260508184537 21 138 1.6 1.6 0.00 0.00 0.00 27 1016.0
20260508184033 21 198 8.0 11.3 0.00 0.00 0.00 29 1016.2
20260508183530 21 249 8.0 9.7 0.00 0.00 0.00 27 1016.4
20260508183026 21 148 4.8 4.8 0.00 0.00 0.00 29 1016.3
20260508182523 21 214 3.2 3.2 0.00 0.00 0.00 26 1016.8
20260508182019 21 47 6.4 9.7 0.00 0.00 0.00 30 1016.7
20260508181514 21 161 6.4 6.4 0.00 0.00 0.00 30 1016.7
20260508181013 21 213 8.0 9.7 0.00 0.00 0.00 28 1016.8
20260508180509 21 174 3.2 3.2 0.00 0.00 0.00 32 1016.7
20260508180005 21 199 3.2 3.2 0.00 0.00 0.00 31 1016.6
20260508175501 20 215 3.2 3.2 0.00 0.00 0.00 36 1016.8
20260508174959 20 202 3.2 4.8 0.00 0.00 0.00 30 1016.9
20260508174457 20 158 3.2 4.8 0.00 0.00 0.00 29 1017.2
20260508173953 20 211 1.6 1.6 0.00 0.00 0.00 35 1016.9
20260508173450 20 201 8.0 9.7 0.00 0.00 0.00 30 1017.1
20260508172946 20 281 8.0 11.3 0.00 0.00 0.00 28 1017.1
20260508172444 20 127 4.8 4.8 0.00 0.00 0.00 28 1017.4
20260508171940 20 48 3.2 3.2 0.00 0.00 0.00 33 1017.7
20260508171436 20 115 4.8 4.8 0.00 0.00 0.00 32 1017.6
20260508170933 20 213 1.6 1.6 0.00 0.00 0.00 31 1017.6
20260508170431 20 93 4.8 4.8 0.00 0.00 0.00 30 1017.7
20260508165927 19 208 3.2 3.2 0.00 0.00 0.00 29 1017.9
20260508165425 20 218 6.4 6.4 0.00 0.00 0.00 30 1018.0
20260508164921 20 87 3.2 3.2 0.00 0.00 0.00 31 1018.1
20260508164418 19 34 4.8 4.8 0.00 0.00 0.00 33 1018.1
20260508163915 20 326 3.2 3.2 0.00 0.00 0.00 28 1018.3
20260508163413 19 171 3.2 3.2 0.00 0.00 0.00 34 1018.2
20260508162908 18 161 1.6 1.6 0.00 0.00 0.00 38 1018.3
20260508162406 18 215 4.8 4.8 0.00 0.00 0.00 32 1018.5
20260508161902 18 171 3.2 3.2 0.00 0.00 0.00 30 1018.6
20260508161400 18 209 4.8 6.4 0.00 0.00 0.00 32 1018.5
20260508160857 18 213 6.4 6.4 0.00 0.00 0.00 32 1018.7
20260508160356 18 96 6.4 9.7 0.00 0.00 0.00 33 1018.8
20260508155851 18 139 1.6 1.6 0.00 0.00 0.00 30 1018.9
20260508155349 18 148 1.6 1.6 0.00 0.00 0.00 36 1019.2
20260508154846 18 146 6.4 9.7 0.00 0.00 0.00 36 1018.9
20260508154343 17 72 3.2 4.8 0.00 0.00 0.00 33 1019.2
20260508153839 18 194 3.2 4.8 0.00 0.00 0.00 33 1019.1
20260508153337 18 146 1.6 1.6 0.00 0.00 0.00 35 1019.4
20260508152833 17 189 4.8 4.8 0.00 0.00 0.00 41 1019.5
20260508152329 17 155 4.8 4.8 0.00 0.00 0.00 31 1019.4
20260508151826 17 212 6.4 6.4 0.00 0.00 0.00 36 1019.7
20260508151323 17 186 0.0 0.0 0.00 0.00 0.00 40 1019.6
20260508150819 17 202 4.8 4.8 0.00 0.00 0.00 38 1019.6
20260508150316 17 185 1.6 1.6 0.00 0.00 0.00 40 1019.8
20260508145812 17 210 4.8 4.8 0.00 0.00 0.00 37 1019.8
20260508145308 17 163 1.6 1.6 0.00 0.00 0.00 40 1019.8
20260508144806 17 160 0.0 0.0 0.00 0.00 0.00 41 1019.5
20260508144303 16 147 3.2 3.2 0.00 0.00 0.00 46 1019.8
20260508143801 16 189 1.6 3.2 0.00 0.00 0.00 44 1019.7
20260508143258 17 236 4.8 6.4 0.00 0.00 0.00 42 1019.8
20260508142754 16 194 3.2 3.2 0.00 0.00 0.00 50 1019.7
20260508142251 16 140 1.6 3.2 0.00 0.00 0.00 48 1019.7
20260508141747 16 130 1.6 1.6 0.00 0.00 0.00 55 1019.9
20260508141245 15 172 0.0 1.6 0.00 0.00 0.00 56 1019.8
20260508140742 15 144 1.6 1.6 0.00 0.00 0.00 53 1020.0
20260508140239 15 152 1.6 1.6 0.00 0.00 0.00 59 1019.8
20260508135735 15 202 3.2 4.8 0.00 0.00 0.00 58 1019.8
20260508135231 14 168 1.6 1.6 0.00 0.00 0.00 65 1019.8
20260508134726 15 209 3.2 3.2 0.00 0.00 0.00 59 1020.0
20260508134224 13 167 1.6 1.6 0.00 0.00 0.00 65 1019.9
20260508133721 13 132 3.2 3.2 0.00 0.00 0.00 65 1019.9
20260508133219 13 155 1.6 1.6 0.00 0.00 0.00 63 1020.0
20260508132716 12 125 3.2 3.2 0.00 0.00 0.00 66 1020.0
20260508132214 12 164 1.6 1.6 0.00 0.00 0.00 72 1019.9
20260508131708 11 148 1.6 1.6 0.00 0.00 0.00 71 1019.7
20260508131206 11 181 0.0 0.0 0.00 0.00 0.00 71 1019.7
20260508130702 11 168 0.0 0.0 0.00 0.00 0.00 79 1019.6
20260508130159 10 173 0.0 0.0 0.00 0.00 0.00 78 1019.6
20260508125654 10 133 1.6 3.2 0.00 0.00 0.00 80 1019.7
20260508125151 9 141 3.2 4.8 0.00 0.00 0.00 78 1019.7
20260508124649 9 171 0.0 0.0 0.00 0.00 0.00 82 1019.7
20260508124146 8 141 3.2 3.2 0.00 0.00 0.00 81 1019.6
20260508123645 8 145 1.6 1.6 0.00 0.00 0.00 81 1019.7
20260508123142 8 145 3.2 3.2 0.00 0.00 0.00 83 1019.6
20260508122638 8 157 1.6 0.0 0.00 0.00 0.00 86 1019.8
20260508122135 7 149 1.6 1.6 0.00 0.00 0.00 84 1019.5
20260508121633 7 154 1.6 1.6 0.00 0.00 0.00 86 1019.5
20260508121131 7 137 3.2 3.2 0.00 0.00 0.00 86 1019.5
20260508120628 7 148 0.0 0.0 0.00 0.00 0.00 89 1019.2
20260508120126 6 159 1.6 0.0 0.00 0.00 0.00 92 1019.4
20260508115624 6 140 1.6 1.6 0.00 0.00 0.00 94 1019.1
20260508115120 6 143 0.0 1.6 0.00 0.00 0.00 95 1019.1
20260508114618 5 144 1.6 1.6 0.00 0.00 0.00 96 1019.0
20260508114113 5 151 0.0 0.0 0.00 0.00 0.00 96 1019.0
20260508113611 5 151 1.6 1.6 0.00 0.00 0.00 97 1019.1
20260508113109 5 146 1.6 1.6 0.00 0.00 0.00 97 1018.9
20260508112605 4 152 0.0 1.6 0.00 0.00 0.00 97 1018.9
20260508112102 3 152 0.0 0.0 0.00 0.00 0.00 97 1018.9
20260508111559 3 153 0.0 0.0 0.00 0.00 0.00 97 1018.9
20260508111056 3 143 1.6 1.6 0.00 0.00 0.00 97 1018.7
20260508110554 3 200 0.0 0.0 0.00 0.00 0.00 97 1018.7
20260508110049 3 200 0.0 0.0 0.00 0.00 0.00 97 1018.7
20260508105544 3 199 0.0 0.0 0.00 0.00 0.00 97 1018.6
20260508105042 3 199 0.0 0.0 0.00 0.00 0.00 97 1018.6
20260508104540 3 199 0.0 0.0 0.00 0.00 0.00 97 1018.3
20260508104036 3 199 0.0 0.0 0.00 0.00 0.00 97 1018.4
20260508103533 3 199 0.0 0.0 0.00 0.00 0.00 97 1018.3
20260508103031 3 199 0.0 0.0 0.00 0.00 0.00 97 1018.4
20260508102528 3 199 0.0 0.0 0.00 0.00 0.00 96 1018.3
20260508102026 3 199 0.0 0.0 0.00 0.00 0.00 96 1018.4
20260508101523 3 199 0.0 0.0 0.00 0.00 0.00 96 1018.3
20260508101020 3 199 0.0 0.0 0.00 0.00 0.00 96 1018.3
20260508100518 3 199 1.6 1.6 0.00 0.00 0.00 96 1018.1
20260508100015 3 199 0.0 0.0 0.00 0.00 0.00 96 1018.1
20260508095512 3 199 0.0 0.0 0.00 0.00 0.00 96 1018.1
20260508095008 3 199 0.0 0.0 0.00 0.00 0.00 96 1018.0
20260508094506 3 199 0.0 0.0 0.00 0.00 0.00 96 1018.0
20260508094002 3 199 0.0 0.0 0.00 0.00 0.00 96 1018.0
20260508093459 3 199 0.0 0.0 0.00 0.00 0.00 96 1018.0
20260508092957 3 199 0.0 0.0 0.00 0.00 0.00 96 1017.8
20260508092454 3 199 0.0 0.0 0.00 0.00 0.00 96 1018.0
20260508091953 4 199 0.0 0.0 0.00 0.00 0.00 96 1018.0
20260508091450 4 199 0.0 0.0 0.00 0.00 0.00 96 1018.1
20260508090947 4 199 0.0 1.6 0.00 0.00 0.00 96 1018.0
20260508090446 4 199 0.0 0.0 0.00 0.00 0.00 96 1018.1
20260508085941 4 199 0.0 0.0 0.00 0.00 0.00 96 1018.1
20260508085438 4 200 0.0 0.0 0.00 0.00 0.00 96 1017.7
20260508084935 4 199 0.0 0.0 0.00 0.00 0.00 96 1017.8
20260508084431 4 199 0.0 0.0 0.00 0.00 0.00 96 1017.8
20260508083929 4 200 0.0 0.0 0.00 0.00 0.00 96 1017.8
20260508083426 4 200 0.0 0.0 0.00 0.00 0.00 96 1018.1
20260508082926 4 200 0.0 0.0 0.00 0.00 0.00 96 1018.1
20260508082424 4 200 0.0 0.0 0.00 0.00 0.00 95 1018.0
20260508081922 5 200 0.0 0.0 0.00 0.00 0.00 95 1018.1
20260508081418 5 200 0.0 0.0 0.00 0.00 0.00 95 1018.0
20260508080914 5 200 0.0 0.0 0.00 0.00 0.00 95 1018.1
20260508080413 5 200 0.0 0.0 0.00 0.00 0.00 95 1018.3
20260508075909 5 200 0.0 0.0 0.00 0.00 0.00 95 1018.2
20260508075406 5 200 0.0 0.0 0.00 0.00 0.00 95 1017.9
20260508074904 5 200 0.0 0.0 0.00 0.00 0.00 95 1018.0
20260508074401 5 200 0.0 0.0 0.00 0.00 0.00 95 1018.1
20260508073857 5 200 0.0 0.0 0.00 0.00 0.00 95 1018.0
20260508073356 5 200 0.0 0.0 0.00 0.00 0.00 95 1018.1
20260508072852 5 200 0.0 0.0 0.00 0.00 0.00 95 1018.1
20260508072348 5 200 0.0 0.0 0.00 0.00 0.00 95 1018.2
20260508071845 5 200 0.0 0.0 0.00 0.00 0.00 95 1018.2
20260508071344 5 200 0.0 0.0 0.00 0.00 0.00 95 1018.2
20260508070841 5 200 0.0 0.0 0.00 0.00 0.00 94 1018.3
20260508070339 5 200 0.0 0.0 0.00 0.00 0.00 94 1018.2
20260508065837 5 200 0.0 0.0 0.00 0.00 0.00 94 1018.4
20260508065335 5 200 0.0 0.0 0.00 0.00 0.00 94 1018.2
20260508064833 5 200 0.0 0.0 0.00 0.00 0.00 94 1018.5
20260508064330 5 200 0.0 0.0 0.00 0.00 0.00 94 1018.5
20260508063827 5 200 0.0 0.0 0.00 0.00 0.00 94 1018.5
20260508063325 6 200 0.0 0.0 0.00 0.00 0.00 94 1018.3
20260508062822 6 200 0.0 0.0 0.00 0.00 0.00 93 1018.4
20260508062320 6 200 0.0 0.0 0.00 0.00 0.00 93 1018.3
20260508061816 6 200 0.0 0.0 0.00 0.00 0.00 93 1018.5
20260508061313 6 200 0.0 0.0 0.00 0.00 0.00 93 1018.5
20260508060810 6 200 0.0 0.0 0.00 0.00 0.00 93 1018.6
20260508060308 6 200 0.0 0.0 0.00 0.00 0.00 92 1018.6
20260508055808 6 200 0.0 0.0 0.00 0.00 0.00 92 1018.5
20260508055307 6 200 0.0 0.0 0.00 0.00 0.00 91 1018.5
20260508054802 6 200 0.0 0.0 0.00 0.00 0.00 91 1018.3
20260508054300 6 200 0.0 0.0 0.00 0.00 0.00 90 1018.4
20260508053757 6 200 0.0 0.0 0.00 0.00 0.00 89 1018.4
20260508053254 6 200 0.0 0.0 0.00 0.00 0.00 88 1018.4
20260508052751 6 200 0.0 0.0 0.00 0.00 0.00 88 1018.4
20260508052249 6 200 0.0 0.0 0.00 0.00 0.00 88 1018.6
20260508051744 6 200 0.0 0.0 0.00 0.00 0.00 90 1018.5
20260508051240 6 200 0.0 0.0 0.00 0.00 0.00 89 1018.3
20260508050737 6 200 0.0 0.0 0.00 0.00 0.00 88 1018.4
20260508050234 6 200 0.0 0.0 0.00 0.00 0.00 88 1018.3
20260508045729 6 200 0.0 0.0 0.00 0.03 0.03 88 1018.5
20260508045228 6 200 0.0 0.0 0.00 0.03 0.03 88 1018.8
20260508044725 6 200 0.0 0.0 0.00 0.03 0.03 89 1018.5
20260508044221 6 200 0.0 0.0 0.00 0.03 0.03 88 1018.5
20260508043717 6 200 0.0 0.0 0.00 0.03 0.03 88 1018.6
20260508043215 7 200 0.0 0.0 0.00 0.03 0.03 88 1018.8
20260508042711 7 200 0.0 0.0 0.00 0.03 0.03 87 1018.7
20260508042209 7 200 0.0 0.0 0.00 0.03 0.03 85 1018.7
20260508041705 7 200 0.0 0.0 0.00 0.03 0.03 82 1018.7
20260508041202 7 200 0.0 0.0 0.00 0.03 0.03 82 1018.6
20260508040659 7 200 0.0 0.0 0.00 0.03 0.03 84 1018.3
20260508040156 7 200 0.0 0.0 0.00 0.03 0.03 83 1018.5
20260508035654 7 200 0.0 0.0 0.00 0.03 0.03 82 1018.3
20260508035151 8 200 0.0 0.0 0.00 0.03 0.03 81 1018.3
20260508034647 8 200 0.0 0.0 0.00 0.03 0.03 80 1018.2
20260508034144 8 200 0.0 0.0 0.00 0.03 0.03 78 1018.2
20260508033641 8 200 0.0 0.0 0.00 0.03 0.03 78 1018.1
20260508033140 8 200 0.0 0.0 0.00 0.03 0.03 76 1018.2